Weather History for Skagway, AK

Change the Weather History Date:

Tuesday, September 24, 2013

  Actual Average Record
Temperature  
Mean Temperature 48 °F -  
Max Temperature 54 °F 51 °F 64 °F (1969)
Min Temperature 41 °F 41 °F 20 °F (1972)
Degree Days  
Heating Degree Days 16    
Moisture  
Dew Point 43 °F    
Average Humidity 85    
Maximum Humidity 96    
Minimum Humidity 66    
Precipitation  
Precipitation 0.01 in - - ()
Sea Level Pressure  
Sea Level Pressure 29.93 in    
Wind  
Wind Speed 1 mph (WSW)    
Max Wind Speed 7 mph    
Max Gust Speed -    
Visibility 10 miles    
Events Rain    
Averages and records for this station are not official NWS values.
T = Trace of Precipitation, MM = Missing Value Source: NWS Daily Summary

Daily Weather History Graph

Daily Weather History Graph

Search for Another Location

Airport:

Trip Planner

Search our weather history database for the weather conditions in past years. The results will help you decide how hot, cold, wet, or windy it might be!

Date:

Astronomy

Sep. 24, 2013 Rise Set
Actual Time 6:51 AM AKDT 6:53 PM AKDT
Civil Twilight 6:10 AM AKDT 7:34 PM AKDT
Nautical Twilight 5:21 AM AKDT 8:22 PM AKDT
Astronomical Twilight 4:28 AM AKDT 9:15 PM AKDT
Moon 8:59 PM AKDT (9/24) 1:30 PM AKDT (9/24)
Length of Visible Light 13h 23m
Length of Day
12h 02m
Waning Gibbous, 72% of the Moon is Illuminated
Sep 24
Waning Gibbous
Sep 26
Last Quarter
Oct 4
New
Oct 11
First Quarter
Oct 18
Full

Hourly Weather History & Observations

Time (AKDT) Temp. Dew Point Humidity Pressure Visibility Wind Dir Wind Speed Gust Speed Precip Events Conditions
12:53 AM 46.9 °F 44.1 °F 90% 29.70 in 10.0 mi Calm Calm - N/A   Overcast
1:53 AM 46.9 °F 44.1 °F 90% 29.73 in 10.0 mi ENE 3.5 mph - N/A   Overcast
2:53 AM 46.9 °F 45.0 °F 93% 29.75 in 10.0 mi Calm Calm - N/A   Overcast
3:53 AM 46.9 °F 44.1 °F 90% 29.76 in 10.0 mi Calm Calm - 0.00 in Rain Light Rain
4:53 AM 46.9 °F 44.1 °F 90% 29.78 in 10.0 mi Calm Calm - 0.00 in   Mostly Cloudy
5:53 AM 46.0 °F 43.0 °F 89% 29.82 in 10.0 mi Calm Calm - N/A   Overcast
6:53 AM 45.0 °F 42.1 °F 90% 29.84 in 10.0 mi Calm Calm - 0.01 in   Mostly Cloudy
7:53 AM 45.0 °F 43.0 °F 93% 29.86 in 10.0 mi Calm Calm - N/A   Overcast
8:53 AM 46.0 °F 45.0 °F 96% 29.88 in 10.0 mi Calm Calm - N/A   Overcast
9:53 AM 48.0 °F 45.0 °F 89% 29.90 in 10.0 mi Calm Calm - N/A   Mostly Cloudy
10:53 AM 51.1 °F 46.0 °F 83% 29.92 in 10.0 mi Calm Calm - N/A   Scattered Clouds
11:53 AM 51.1 °F 45.0 °F 80% 29.94 in 10.0 mi WSW 3.5 mph - N/A   Overcast
12:53 PM 51.1 °F 45.0 °F 80% 29.95 in 10.0 mi Calm Calm - N/A   Partly Cloudy
1:53 PM 52.0 °F 44.1 °F 74% 29.97 in 10.0 mi WSW 3.5 mph - N/A   Overcast
2:53 PM 54.0 °F 43.0 °F 66% 29.98 in 10.0 mi Calm Calm - N/A   Overcast
3:53 PM 53.1 °F 43.0 °F 69% 29.99 in 10.0 mi WSW 5.8 mph - N/A   Clear
4:53 PM 53.1 °F 43.0 °F 69% 30.02 in 10.0 mi WSW 6.9 mph - N/A   Clear
5:53 PM 51.1 °F 43.0 °F 74% 30.03 in 10.0 mi Calm Calm - N/A   Clear
6:53 PM 48.0 °F 43.0 °F 83% 30.06 in 10.0 mi Calm Calm - N/A   Clear
7:53 PM 46.0 °F 43.0 °F 89% 30.08 in 10.0 mi Calm Calm - N/A   Clear
8:53 PM 45.0 °F 41.0 °F 86% 30.10 in 10.0 mi Calm Calm - N/A   Clear
9:53 PM 44.1 °F 41.0 °F 89% 30.11 in 10.0 mi Calm Calm - N/A   Clear
10:53 PM 43.0 °F 39.9 °F 89% 30.13 in 9.0 mi Calm Calm - N/A   Clear
11:53 PM 41.0 °F 37.9 °F 89% 30.12 in 10.0 mi Calm Calm - N/A   Clear